La Grande, OR

9:09 AM PST on December 12, 2019 (GMT -0800)
La Grande-Union County

Weather History for KLGD - September, 2019

Change the Weather History Date:

Friday, September 13, 2019

  Actual Average Record
Temperature  
Mean Temperature 68 °F -  
Max Temperature 78 °F 73 °F 91 °F (1981)
Min Temperature 54 °F 43 °F 30 °F (2012)
Cooling Degree Days 2    
Growing Degree Days 18 (Base 50)    
Moisture  
Dew Point 47 °F    
Average Humidity 49    
Maximum Humidity 77    
Minimum Humidity 37    
Precipitation  
Precipitation 0.00 in - - ()
Sea Level Pressure  
Sea Level Pressure 30.51 in    
Wind  
Wind Speed 9 mph (West)    
Max Wind Speed 15 mph    
Max Gust Speed 16 mph    
Visibility 10 miles    
Events      
Averages and records for this station are not official NWS values.
T = Trace of Precipitation, MM = Missing Value Source: NWS Daily Summary

Daily Weather History Graph

Daily Weather History Graph

Search for Another Location

Airport or City:

Astronomy

Sep. 13, 2019 Rise Set
Actual Time 6:28 AM PDT 7:07 PM PDT
Civil Twilight 5:58 AM PDT 7:36 PM PDT
Nautical Twilight 5:22 AM PDT 8:11 PM PDT
Astronomical Twilight 4:46 AM PDT 8:48 PM PDT
Moon 7:25 PM PDT (9/13) 5:44 AM PDT (9/13)
Length of Visible Light 13h 38m
Length of Day
12h 39m
Full, 100% of the Moon is Illuminated
Sep 13
Full
Sep 13
Full
Sep 21
Last Quarter
Sep 28
New
Oct 5
First Quarter

Hourly Weather History & Observations

Time (PDT) Temp. Dew Point Humidity Pressure Visibility Wind Dir Wind Speed Gust Speed Precip Events Conditions
12:56 AM 66.9 °F 41.0 °F 39% 30.52 in 10.0 mi South 15.0 mph - N/A   Clear
1:56 AM 66.0 °F 41.0 °F 40% 30.53 in 10.0 mi South 11.5 mph - N/A   Clear
2:56 AM 63.0 °F 41.0 °F 45% 30.52 in 10.0 mi South 6.9 mph - N/A   Clear
3:56 AM 66.0 °F 39.9 °F 38% 30.51 in 10.0 mi South 13.8 mph - N/A   Clear
4:56 AM 66.0 °F 39.9 °F 38% 30.50 in 10.0 mi South 15.0 mph - N/A   Mostly Cloudy
5:56 AM 64.9 °F 39.9 °F 40% 30.51 in 10.0 mi South 10.4 mph - N/A   Clear
6:56 AM 61.0 °F 44.1 °F 54% 30.52 in 10.0 mi WNW 8.1 mph - N/A   Clear
7:56 AM 62.1 °F 46.9 °F 58% 30.54 in 10.0 mi West 4.6 mph - N/A   Clear
8:56 AM 62.1 °F 46.0 °F 56% 30.56 in 10.0 mi ESE 3.5 mph - N/A   Clear
9:56 AM 66.0 °F 48.0 °F 52% 30.56 in 10.0 mi SSE 3.5 mph - N/A   Clear
10:56 AM 70.0 °F 48.0 °F 46% 30.55 in 10.0 mi NNW 3.5 mph - N/A   Clear
11:56 AM 73.0 °F 48.0 °F 41% 30.53 in 10.0 mi NNW 4.6 mph - N/A   Clear
12:56 PM 73.9 °F 46.9 °F 38% 30.51 in 7.0 mi Variable 3.5 mph - N/A   Clear
1:56 PM 75.0 °F 48.9 °F 40% 30.50 in 10.0 mi North 6.9 mph - N/A   Mostly Cloudy
2:56 PM 75.9 °F 50.0 °F 40% 30.49 in 10.0 mi North 5.8 mph - N/A   Scattered Clouds
3:56 PM 78.1 °F 50.0 °F 37% 30.48 in 10.0 mi NW 12.7 mph 16.1 mph N/A   Clear
4:56 PM 73.9 °F 51.1 °F 45% 30.48 in 10.0 mi WNW 12.7 mph - N/A   Clear
5:56 PM 72.0 °F 51.1 °F 48% 30.49 in 10.0 mi NW 8.1 mph - N/A   Clear
6:56 PM 69.1 °F 51.1 °F 53% 30.49 in 10.0 mi NW 4.6 mph - N/A   Clear
7:56 PM 64.9 °F 51.1 °F 61% 30.51 in 10.0 mi West 8.1 mph - N/A   Clear
8:56 PM 64.0 °F 50.0 °F 60% 30.52 in 10.0 mi WNW 9.2 mph - N/A   Clear
9:56 PM 61.0 °F 48.9 °F 64% 30.51 in 10.0 mi West 6.9 mph - N/A   Clear
10:56 PM 57.9 °F 48.0 °F 70% 30.50 in 10.0 mi WNW 3.5 mph - N/A   Clear
11:56 PM 54.0 °F 46.9 °F 77% 30.51 in 10.0 mi ENE 4.6 mph - N/A   Clear